Weather History for Stampede Pass, WA

Change the Weather History Date:

Wednesday, February 13, 2013

  Actual Average Record
Temperature  
Mean Temperature 30 °F -  
Max Temperature 33 °F 30 °F 39 °F (2003)
Min Temperature 28 °F 23 °F 19 °F (2002)
Degree Days  
Heating Degree Days 34    
Moisture  
Dew Point 29 °F    
Average Humidity 93    
Maximum Humidity 100    
Minimum Humidity 87    
Precipitation  
Precipitation 0.01 in - - ()
Sea Level Pressure  
Sea Level Pressure 30.28 in    
Wind  
Wind Speed 12 mph (West)    
Max Wind Speed 18 mph    
Max Gust Speed 30 mph    
Visibility 2 miles    
Events Fog , Rain , Snow    
Averages and records for this station are not official NWS values.
T = Trace of Precipitation, MM = Missing Value Source: NWS Daily Summary

Daily Weather History Graph

Daily Weather History Graph

Search for Another Location

Airport:

Trip Planner

Search our weather history database for the weather conditions in past years. The results will help you decide how hot, cold, wet, or windy it might be!

Date:

Astronomy

Feb. 13, 2013 Rise Set
Actual Time 7:13 AM PST 5:26 PM PST
Civil Twilight 6:41 AM PST 5:58 PM PST
Nautical Twilight 6:05 AM PST 6:34 PM PST
Astronomical Twilight 5:30 AM PST 7:09 PM PST
Moon 8:26 AM PST (2/13) 9:56 PM PST (2/13)
Length of Visible Light 11h 17m
Length of Day
10h 13m
Waxing Crescent, 14% of the Moon is Illuminated
Feb 13
Waxing Crescent
Feb 17
First Quarter
Feb 25
Full
Mar 4
Last Quarter
Mar 11
New

Hourly Weather History & Observations

Time (PST) Temp. Windchill Dew Point Humidity Pressure Visibility Wind Dir Wind Speed Gust Speed Precip Events Conditions
1:07 AM 33.8 °F 23.9 °F 32.0 °F 93% 30.21 in 1.2 mi West 15.0 mph 28.8 mph 0.02 in Rain Light Rain
1:19 AM 33.8 °F 24.3 °F 32.0 °F 93% 30.21 in 0.8 mi West 13.8 mph 26.5 mph 0.03 in Rain Light Rain
2:19 AM 33.8 °F 25.8 °F 32.0 °F 93% 30.20 in 0.5 mi WSW 10.4 mph 20.7 mph 0.03 in Fog Fog
6:56 AM 32.0 °F 21.6 °F 28.9 °F 88% 30.30 in 10.0 mi West 15.0 mph 27.6 mph 0.01 in   Overcast
7:22 AM 32.0 °F 22.5 °F 28.4 °F 87% 30.24 in 10.0 mi West 12.7 mph 29.9 mph N/A   Overcast
8:38 AM 30.2 °F 19.8 °F 28.4 °F 93% 30.26 in 2.0 mi West 13.8 mph 28.8 mph N/A   Overcast
8:43 AM 30.2 °F 18.1 °F 28.4 °F 93% 30.26 in 1.8 mi West 18.4 mph 29.9 mph N/A   Overcast
8:56 AM 30.0 °F 20.5 °F 28.0 °F 92% 30.34 in 0.5 mi West 11.5 mph 24.2 mph 0.00 in Fog , Snow Light Snow
10:07 AM 28.4 °F 17.0 °F 26.6 °F 93% 30.28 in 1.5 mi West 15.0 mph 26.5 mph N/A   Overcast
10:09 AM 28.4 °F 17.5 °F 26.6 °F 93% 30.28 in 4.0 mi West 13.8 mph 27.6 mph N/A   Overcast
10:29 AM 28.4 °F 18.5 °F 28.4 °F 100% 30.28 in 10.0 mi West 11.5 mph 27.6 mph N/A   Overcast
1:39 PM 30.2 °F 21.3 °F 28.4 °F 93% 30.28 in 1.2 mi West 10.4 mph 23.0 mph 0.00 in Snow Light Snow
1:44 PM 30.2 °F 22.6 °F 28.4 °F 93% 30.28 in 0.8 mi West 8.1 mph 19.6 mph 0.00 in Snow Light Snow
1:53 PM 30.2 °F 21.9 °F 28.4 °F 93% 30.28 in 0.5 mi West 9.2 mph 18.4 mph 0.00 in Fog , Snow Light Snow
1:56 PM 30.0 °F 21.7 °F 28.9 °F 96% 30.36 in 0.5 mi West 9.2 mph 18.4 mph 0.00 in Fog , Snow Light Snow
2:23 PM 30.2 °F 21.3 °F 28.4 °F 93% 30.29 in 0.2 mi West 10.4 mph 21.9 mph 0.00 in Fog , Snow Light Snow
3:14 PM 30.2 °F 21.9 °F 28.4 °F 93% 30.30 in 0.2 mi West 9.2 mph 18.4 mph 0.01 in Fog , Snow Light Snow
5:34 PM 30.2 °F 22.6 °F 28.4 °F 93% 30.31 in 1.0 mi West 8.1 mph - 0.01 in Snow Light Snow
5:38 PM 30.2 °F 21.9 °F 28.4 °F 93% 30.31 in 1.5 mi West 9.2 mph - 0.01 in Snow Light Snow
5:43 PM 30.2 °F 22.6 °F 28.4 °F 93% 30.30 in 3.0 mi WSW 8.1 mph - 0.01 in   Overcast
6:03 PM 30.2 °F 22.6 °F 28.4 °F 93% 30.31 in 0.8 mi West 8.1 mph - 0.00 in Snow Light Snow
6:21 PM 30.2 °F 22.6 °F 28.4 °F 93% 30.31 in 0.2 mi West 8.1 mph - 0.01 in Fog , Snow Light Snow
7:41 PM 30.2 °F 23.4 °F 28.4 °F 93% 30.33 in 1.0 mi Variable 6.9 mph - 0.00 in   Overcast